WELCOME TO TCFT

Voted One Of The Best Flight Schools In The USA

 

 

Learn More

BECOME AN AIRLINE PILOT

Treasure Coast Flight Training is committed to serving all of your aviation needs as a full service flight academy, aircraft rental facility, and pilot shop

Contact Us

 

 

Questions About Becoming An Airline Pilot?

Get Started

 

 

What Our Graduates Say

 

 

The training I received with Treasure Coast Flight Training prepared me to become a professional pilot

 

Nathan Meisner

Pilot - Cessna Caravan - USA

Professional yet relaxed environment. Truly an enjoyable experience to fly with TCFT

 

Sophia

Certified Flight Instructor - China

The training I needed to get me to where I am now!

 

Enderson Rafael

Pilot - Go Airlines - Brazil

Thank you TCFT for making me an airline pilot!

 

Kyle Barrett

Pilot - GoJet Airlines - USA

Current Conditions

 

Metar

 

KSUA 260515Z AUTO 21003KT 10SM CLR 24/23 A2997 RMK AO2

 

TAF

 

TAF KSUA 251720Z 2518/2618 24011G20KT P6SM VCSH FEW015 BKN040 BKN060 FM252200 27008KT P6SM SCT050 FM260600 27005KT P6SM SCT050 FM261200 35007KT P6SM BKN050 FM261700 03008KT P6SM BKN050 AMD NOT SKED

 

 

Look No Further. Get Started Today

 

 

Enroll Now